Location: Asbacherhof
(48.8543°N, 10.7903°E)
Time: 21:37:03
(UTC+00:00)

ALOS - Pass Details

Date: 26 May 2022
Orbit: 682 x 683 km, 97.9° (Epoch: 29 June)

Event Time Altitude Azimuth Distance (km) Brightness Sun altitude
Rises 02:29:44 0° 18° (NNE) 3,058 6.9 -7.6°
Reaches altitude 10° 02:32:03 10° 24° (NNE) 2,138 6.1 -7.3°
Maximum altitude 02:36:35 48° 99° (E) 889 3.2 -6.8°
Drops below altitude 10° 02:41:05 10° 174° (S) 2,121 4.5 -6.2°
Sets 02:43:22 0° 180° (S) 3,031 5.2 -5.9°
